Regional Weather Roundup
Issued by NWS Burlington, VT

Home | Current Version | Previous Version | Text Only | Print | Product List | Glossary On
Versions: 1 2 3 4 5 6 7 8 9 10 11 12 13 14 15 16 17 18 19 20 21 22 23 24 25 26 27 28 29 30 31 32 33 34 35 36 37 38 39 40 41 42 43 44 45 46 47 48 49 50
000
ASUS41 KBTV 212330
RWRBTV
VERMONT REGIONAL WEATHER ROUNDUP
NATIONAL WEATHER SERVICE BURLINGTON VT
600 PM EST TUE FEB 21 2017

NOTE: "FAIR" INDICATES FEW OR NO CLOUDS BELOW 12,000 FEET WITH NO
SIGNIFICANT WEATHER AND/OR OBSTRUCTIONS TO VISIBILITY.

* THESE REPORTS ARE NOT UNDER NWS QUALITY CONTROL AND/OR DO NOT
  REPORT WEATHER SUCH AS PRECIPITATION AND FOG.

VTZ001>019-220000-
_____VERMONT_____


CITY           SKY/WX    TMP DP  RH WIND       PRES   REMARKS
BURLINGTON     CLOUDY    41  18  39 S18G25    30.02F
MONTPELIER     PTCLDY    37  15  40 S8        30.10S WCI  31
MORRISVILLE    CLOUDY    39  15  37 VRB3      30.04F
ST. JOHNSBURY*   N/A     39  17  41 MISG      30.05F
LYNDONVILLE*   FAIR      37  17  44 SE14      30.07S WCI  28
MIDDLEBURY*    FAIR      37   6  27 SE5       30.09R
RUTLAND*       CLOUDY    39  17  41 SE12      30.08S WCI  32
SPRINGFIELD    CLOUDY    39  13  34 S7        30.13F
HIGHGATE*      FAIR      40  18  40 S14G25    30.00F
NEWPORT*       FAIR      37  16  41 S8        30.01F WCI  31
BENNINGTON     CLOUDY    43  15  32 S9        30.10R
SUTTON*          N/A     36 N/A N/A MISG        N/A
ISLAND POND*     N/A     39 N/A N/A SE5         N/A
GALLUP MILLS*    N/A     32 N/A N/A MISG        N/A
UNION VILLAGE*   N/A     36 N/A N/A MISG        N/A
MT. MANSFIELD*   N/A    N/A N/A N/A S31G44      N/A

_____LAKE CHAMPLAIN_____


CITY           SKY/WX    TMP DP  RH WIND       PRES   REMARKS
BURTON ISLAND*   N/A     39  23  52 S22G28      N/A  WCI  29
COLCHESTER RF*   N/A     39  28  65 S28         N/A  WCI  28
DIAMOND ISL*     N/A     39  23  52 SE18        N/A  WCI  30

$$

NYZ007-026>031-035-052-083-087-220000-
_____NORTHERN NEW YORK_____


CITY           SKY/WX    TMP DP  RH WIND       PRES   REMARKS
SARANAC LAKE   CLOUDY    40  17  39 W9        29.95R
MASSENA        CLOUDY    34  24  67 CALM      30.00S
OGDENSBURG*    LGT RAIN  41  27  56 S5        29.99R
POTSDAM*       CLOUDY    37  27  65 CALM      29.98R
STARK FALLS*     N/A     43 N/A N/A S9          N/A
WATERTOWN      CLOUDY    45  24  43 VRB5      29.98R
FT DRUM        CLOUDY    41  21  45 SE13      29.97R
ALBANY         CLOUDY    43  21  41 S12G21    30.11R
GLENS FALLS    CLOUDY    42  20  41 SW8       30.11S

$$
NHZ002-005-011-220000-
_____NEW HAMPSHIRE_____


CITY           SKY/WX    TMP DP  RH WIND       PRES   REMARKS
LEBANON        PTCLDY    40  17  39 S3        30.10F
KEENE          CLOUDY    38  18  44 VRB3      30.13F
MT WASHINGTON  CLOUDY    28   3  34 SW32G43     N/A  WCI  12
PLYMOUTH       FAIR      38  19  48 CALM      30.14F
WHITEFIELD     CLOUDY    37  18  46 E6        30.06F

$$

_____REGIONAL QUEBEC LOCATIONS_____


CITY           SKY/WX    TMP DP  RH WIND       PRES   REMARKS
MONTREAL       CLOUDY    34  23  64 NW8       30.00S WCI  27
QUEBEC CITY    CLOUDY    30  18  59 VRB2      30.01F
SHERBROOKE     MOCLDY    39  19  45 SE5       29.98F

_____REGIONAL ONTARIO LOCATIONS_____


CITY           SKY/WX    TMP DP  RH WIND       PRES   REMARKS
OTTAWA         CLOUDY    32  27  80 E7        29.95F WCI  26

______KEY______
VSB  - VISIBILITY IN MILES
WCI  - WIND CHILL INDEX
HX   - HEAT INDEX
$$
NNNN




USA.gov is the U.S. government's official web portal to all federal, state and local government web resources and services.